Погода в Взвозе

Россия / Ивановская область     56°32′41″N   42°18′45″E
темп.,
°C
ветер,
м/с
пор.,
м/с
влажн.,
%
обл.,
%
осадки,
мм/ч
давл.,
гПа
погр.,
м
17 мая, пн
пн1700:00+14зсз12862 0.0 101411
03:00+13ююв00915 0.0 101611
06:00+15в128079 0.0 101669
09:00+22вюв245663 0.0 1016661
12:00+25вюв3446100 0.0 10161308
15:00+27юв344668 0.0 10151547
18:00+25в366295 0.0 1014408
21:00+19в3118799 0.4 1015238
18 мая, вт
вт1800:00+17юв3593100 0.3 101588
03:00+15юв358782 0.3 101584
06:00+16вюв3879100 0.0 1015168
09:00+24вюв475086 0.0 1015498
12:00+27юв5841100 0.0 10151180
15:00+29юв573698 0.0 10141856
18:00+25вюв511485 0.0 1013844
21:00+20вюв4156613 0.0 1014433
19 мая, ср
ср1900:00+18вюв413685 0.0 1014319
03:00+17вюв413661 0.0 1014352
06:00+19вюв5147443 0.0 1014455
09:00+24юв611505 0.0 1014640
12:00+28юв6113957 0.0 10131289
15:00+28юв69422 0.0 10131739
18:00+25вюв610583 0.0 1013990
21:00+21вюв513710 0.0 1013582
20 мая, чт
чт2000:00+18вюв413740 0.0 1013428
03:00+16вюв412730 0.0 1013347
06:00+17вюв513720 0.0 1012485
09:00+22юв611550 0.0 1012937
12:00+25юв710490 0.0 10111446
15:00+25юв712565 0.3 10101811
18:00+21юв51073100 1.2 10111082
21:00+16ююв2794100 3.3 1012160
21 мая, пт
пт2100:00+15ююв311930 0.7 1012394
03:00+13ююв3109694 0.7 1012339
06:00+14ююв3109377 0.0 1013409
09:00+19ю586788 0.0 10121189
12:00+21ю685336 0.3 10111800
15:00+19юз7126080 0.8 10111389
18:00+16ю5117798 0.3 10101184
21:00+13ююз51291100 1.6 1011813